[[{"header":{"parameterUnit":"m.s-1","parameterCategory":1,"la1":30.2991,"la2":30.254,"lo1":-89.0895,"lo2":-89.0444,"dy":0.0017,"dx":0.0017,"nx":28,"ny":28,"refTime":"2025-07-27T03:00:00:Z","depth":0,"parameterNumber":2,"parameterNumberName":"U-component_of_WINDS"},"data":[0,0,0,0,0,0,0,0,0,0,0,0,0,0,0,0,0,0,0,0,0,0,0,0,0,0,0,0,0,0,0,0,0,0,0,0,0,0,0,0,0,0,0,0,0,0,0,0,0,0,0,0,0,0,0,0,0,0,0.6808,0.6809,0,0.6884,0.6885,0.6886,0.6899,0.6898,0.6897,0.6897,0.6977,0.698,0.6983,0,0,0,0,0,0,0,0,0,0,0,0,0,0.6679,0.6681,0.6808,0.6809,0.681,0.6884,0.6885,0.6886,0.6899,0.6898,0.6897,0.6896,0.6976,0.698,0.6983,0,0,0,0,0,0,0,0,0,0,0,0,0,0.6743,0.6682,0.6808,0.6825,0.6828,0.6884,0.6885,0.6886,0.6899,0.6898,0.6897,0.6896,0.6975,0.6979,0.6983,0.7029,0,0,0.6996,0.6998,0,0,0,0,0,0,0,0,0.6739,0.6748,0.6822,0.6824,0.6827,0.6881,0.6869,0.6934,0.6899,0.6872,0.6897,0.6895,0.6946,0.6953,0.6969,0.7032,0.7036,0.6996,0.6999,0.7001,0.7002,0,0,0,0,0,0,0,0.6735,0.6745,0.6838,0.6823,0.6826,0.6831,0.6839,0.6881,0.6914,0.6874,0.6875,0.6884,0.6947,0.6965,0.6971,0.7037,0.6996,0.7,0.7003,0.7004,0.7144,0.7145,0,0,0,0,0,0,0.6727,0.6741,0.6836,0.684,0.678,0.6834,0.6843,0.6864,0.6913,0.692,0.6885,0.6884,0.6959,0.6966,0.6974,0.7032,0.7001,0.7005,0.7007,0.7142,0.7144,0.7145,0,0,0,0,0,0,0.6724,0.6735,0.6833,0.6791,0.6804,0.6837,0.6861,0.6866,0.6884,0.6921,0.6927,0.6896,0.6958,0.6968,0.7015,0.7035,0.7006,0.701,0.7141,0.7143,0.7145,0.7147,0,0,0,0,0,0,0.672,0.6734,0.675,0.6791,0.6806,0.6871,0.6862,0.6869,0.6891,0.6891,0.6934,0.694,0.6958,0.7009,0.7019,0.704,0.7013,0.7139,0.7142,0.7144,0.7145,0.7148,0.7151,0,0,0,0,0,0.6716,0.6748,0.6751,0.6763,0.6827,0.6872,0.6881,0.69,0.6892,0.691,0.6934,0.6939,0.7031,0.7014,0.7025,0.7048,0.7138,0.7141,0.7144,0.7144,0.7148,0.7151,0,0,0,0,0,0,0.671,0.6754,0.6758,0.6804,0.6834,0.6874,0.6897,0.6903,0.6937,0.6936,0.6959,0.6969,0.7015,0.7036,0.7016,0.7095,0.7084,0.7089,0.708,0.7084,0.7087,0.7082,0.7017,0,0,0,0,0,0.6714,0.6746,0.6783,0.6821,0.6835,0.6864,0.6884,0.6896,0.6929,0.6942,0.697,0.7002,0.7039,0.7062,0.7098,0.7148,0.7159,0.7169,0.7172,0.7174,0.7179,0.7209,0.7215,0.7154,0.7154,0.7154,0,0,0.6722,0.675,0.6769,0.682,0.6845,0.6879,0.6874,0.691,0.6937,0.6948,0.6995,0.7016,0.7054,0.7103,0.7126,0.7122,0.7198,0.7178,0.7179,0.7183,0.7213,0.7218,0.7224,0.7156,0.7156,0.7156,0,0,0.6756,0.678,0.6815,0.684,0.6877,0.6896,0.6904,0.6944,0.6959,0.7005,0.7015,0.7047,0.7109,0.7136,0.7158,0.7204,0.721,0.7215,0.7231,0.7261,0.7265,0.727,0.7288,0.7294,0.7219,0.7219,0.7219,0,0.6763,0.6814,0.6832,0.6868,0.6891,0.6902,0.6939,0.6963,0.701,0.7027,0.7021,0.71,0.7126,0.7183,0.7194,0.7211,0.7223,0.7211,0.7263,0.7268,0.7272,0.729,0.7296,0.722,0.7219,0.7219,0.7219,0,0.6821,0.6857,0.688,0.6926,0.6951,0.6987,0.7013,0.7037,0.7047,0.7067,0.7115,0.7147,0.719,0.7204,0.7215,0.7263,0.726,0.7258,0.7248,0.7278,0.7295,0.7302,0.722,0.722,0.722,0.722,0,0,0.6854,0.6909,0.6918,0.6939,0.6982,0.701,0.7048,0.7089,0.711,0.7143,0.7176,0.7229,0.7228,0.7253,0.7267,0.7292,0.7329,0.7288,0.7289,0.7296,0.7387,0.7389,0.7397,0.7333,0.7334,0.7335,0.7384,0,0.6894,0.696,0.6979,0.7035,0.707,0.7081,0.7114,0.7145,0.7165,0.7198,0.722,0.7258,0.7253,0.7268,0.7293,0.7319,0.7348,0.7315,0.7366,0.7368,0.7358,0.7405,0.7407,0.7452,0.7391,0.7392,0.7393,0,0.695,0.6984,0.7044,0.7084,0.7099,0.7128,0.7168,0.7199,0.7235,0.7248,0.7276,0.7288,0.7329,0.7316,0.7374,0.7352,0.7374,0.739,0.7392,0.7399,0.7383,0.7415,0.7467,0.7474,0.7403,0.7403,0.7402,0,0.697,0.7031,0.7075,0.7092,0.714,0.716,0.7181,0.7216,0.724,0.7276,0.7292,0.7332,0.7355,0.7386,0.7409,0.7397,0.7467,0.7455,0.748,0.748,0.7496,0.7495,0.7553,0.7507,0.7507,0.7507,0.7506,0,0.7015,0.7052,0.7085,0.7112,0.7154,0.7175,0.7217,0.7239,0.727,0.7303,0.7315,0.7346,0.7373,0.7409,0.7427,0.7474,0.7484,0.7497,0.7501,0.7497,0.7495,0.7512,0.7511,0.7508,0.7508,0.7508,0.7507,0,0.7045,0.7068,0.7117,0.7158,0.7169,0.7199,0.7234,0.7262,0.7283,0.7325,0.7336,0.7368,0.7411,0.7436,0.749,0.7502,0.7555,0.7557,0.7542,0.7545,0.757,0.7568,0.7643,0.7655,0.7599,0.7599,0.76,0,0.7072,0.7101,0.7145,0.7167,0.7188,0.7224,0.7249,0.7272,0.7297,0.7341,0.7364,0.7407,0.7443,0.751,0.754,0.7581,0.7586,0.761,0.7593,0.7587,0.7589,0.7588,0.7592,0.7613,0.7613,0.7614,0.7614,0,0.7119,0.713,0.7164,0.7204,0.7233,0.7265,0.7297,0.7316,0.7344,0.7372,0.7415,0.7443,0.7498,0.7541,0.7586,0.7609,0.7617,0.7619,0.7628,0.7624,0.7615,0.7622,0.7552,0.7618,0.7617,0.7617,0.7617,0.7617,0.715,0.7177,0.7212,0.7251,0.7278,0.7308,0.7337,0.7361,0.7397,0.7443,0.7454,0.75,0.7537,0.7597,0.7621,0.7659,0.7655,0.7667,0.767,0.7673,0.7675,0.7607,0.7666,0.7666,0.7666,0.7666,0.7666,0,0.72,0.7223,0.7258,0.7303,0.7334,0.7338,0.7374,0.7401,0.744,0.7474,0.7509,0.7559,0.7601,0.7634,0.7678,0.7702,0.7707,0.7713,0.7712,0.7718,0.7674,0.7664,0.7708,0.7708,0.7708,0.7708,0.7708,0.7708,0.7229,0.7275,0.729,0.735,0.7374,0.7418,0.7439,0.7467,0.7494,0.755,0.7585,0.7605,0.7639,0.7686,0.7726,0.7734,0.7751,0.7756,0.7766,0.7725,0.7721,0.7716,0.7706,0.7759,0.7759,0.7807,0.7807,0.7807]},{"header":{"parameterUnit":"m.s-1","parameterCategory":1,"la1":30.2991,"la2":30.254,"lo1":-89.0895,"lo2":-89.0444,"dy":0.0017,"dx":0.0017,"nx":28,"ny":28,"refTime":"2025-07-27T03:00:00:Z","depth":0,"parameterNumber":3,"parameterNumberName":"V-component_of_WINDS"},"data":[0,0,0,0,0,0,0,0,0,0,0,0,0,0,0,0,0,0,0,0,0,0,0,0,0,0,0,0,0,0,0,0,0,0,0,0,0,0,0,0,0,0,0,0,0,0,0,0,0,0,0,0,0,0,0,0,0,0,-0.5128,-0.5128,0,-0.5111,-0.511,-0.511,-0.5159,-0.5161,-0.5162,-0.5164,-0.5142,-0.514,-0.5138,0,0,0,0,0,0,0,0,0,0,0,0,0,-0.5203,-0.5201,-0.5128,-0.5128,-0.5128,-0.5111,-0.511,-0.511,-0.5159,-0.5161,-0.5163,-0.5165,-0.5143,-0.514,-0.5138,0,0,0,0,0,0,0,0,0,0,0,0,0,-0.5176,-0.5201,-0.5128,-0.515,-0.5152,-0.5111,-0.511,-0.511,-0.5159,-0.5161,-0.5163,-0.5165,-0.5143,-0.514,-0.5137,-0.5073,0,0,-0.5128,-0.5127,0,0,0,0,0,0,0,0,-0.5178,-0.5173,-0.5147,-0.5149,-0.5151,-0.514,-0.5129,-0.5097,-0.5158,-0.5156,-0.5164,-0.5167,-0.5139,-0.5137,-0.5128,-0.5072,-0.5071,-0.5128,-0.5126,-0.5125,-0.5124,0,0,0,0,0,0,0,-0.5179,-0.5174,-0.5121,-0.5147,-0.5149,-0.5161,-0.5159,-0.5123,-0.5135,-0.5156,-0.516,-0.5157,-0.514,-0.5131,-0.5128,-0.507,-0.5128,-0.5125,-0.5123,-0.5122,-0.4963,-0.4961,0,0,0,0,0,0,-0.5179,-0.5176,-0.5122,-0.5121,-0.517,-0.5157,-0.5156,-0.5141,-0.5135,-0.5137,-0.5155,-0.516,-0.5135,-0.5131,-0.5127,-0.5054,-0.5125,-0.5122,-0.512,-0.4965,-0.4962,-0.496,0,0,0,0,0,0,-0.518,-0.5174,-0.5123,-0.5149,-0.5144,-0.5154,-0.5136,-0.5139,-0.513,-0.5135,-0.5137,-0.5144,-0.5136,-0.5131,-0.5087,-0.5054,-0.5121,-0.5118,-0.4968,-0.4965,-0.4961,-0.4904,0,0,0,0,0,0,-0.5182,-0.5174,-0.515,-0.5148,-0.5142,-0.5083,-0.5134,-0.5137,-0.5125,-0.513,-0.5124,-0.5125,-0.5138,-0.5091,-0.5084,-0.5051,-0.5116,-0.4971,-0.4967,-0.4962,-0.4909,-0.4899,-0.4891,0,0,0,0,0,-0.5185,-0.5133,-0.5148,-0.5141,-0.5112,-0.5081,-0.5077,-0.5094,-0.5122,-0.5098,-0.5101,-0.5125,-0.5058,-0.5086,-0.5078,-0.5044,-0.4974,-0.4968,-0.4963,-0.4914,-0.4901,-0.4891,0,0,0,0,0,0,-0.5128,-0.5133,-0.515,-0.5096,-0.5088,-0.5089,-0.5059,-0.508,-0.5062,-0.5068,-0.5088,-0.5086,-0.5039,-0.5036,-0.5067,-0.4982,-0.5021,-0.5013,-0.4986,-0.4974,-0.4965,-0.4968,-0.5113,0,0,0,0,0,-0.511,-0.5085,-0.509,-0.5042,-0.5037,-0.5049,-0.5036,-0.505,-0.5041,-0.5037,-0.5037,-0.5028,-0.5005,-0.4989,-0.4968,-0.4909,-0.4909,-0.4881,-0.4872,-0.4864,-0.4858,-0.483,-0.4818,-0.4942,-0.4942,-0.4942,0,0,-0.5071,-0.507,-0.5053,-0.5031,-0.5026,-0.5,-0.5045,-0.5015,-0.4996,-0.5032,-0.4992,-0.4991,-0.4981,-0.493,-0.4908,-0.4927,-0.4824,-0.4857,-0.4851,-0.4849,-0.4823,-0.4811,-0.4801,-0.4938,-0.4939,-0.494,0,0,-0.4987,-0.4983,-0.4945,-0.494,-0.4933,-0.4941,-0.4932,-0.493,-0.4932,-0.4892,-0.492,-0.4896,-0.4855,-0.4848,-0.4839,-0.4755,-0.4778,-0.4747,-0.4699,-0.4671,-0.4662,-0.4653,-0.4626,-0.4615,-0.4741,-0.4741,-0.4741,0,-0.494,-0.4902,-0.4922,-0.4891,-0.4881,-0.4915,-0.4876,-0.4869,-0.4855,-0.4847,-0.4869,-0.4821,-0.4816,-0.4765,-0.4745,-0.4736,-0.4727,-0.4749,-0.4662,-0.4653,-0.4646,-0.462,-0.4609,-0.4737,-0.4738,-0.4738,-0.4739,0,-0.4846,-0.4819,-0.4788,-0.4777,-0.4763,-0.4727,-0.4742,-0.4726,-0.4741,-0.4747,-0.4706,-0.4702,-0.4682,-0.467,-0.4684,-0.4622,-0.4635,-0.4658,-0.4698,-0.463,-0.4606,-0.4596,-0.4733,-0.4734,-0.4735,-0.4736,0,0,-0.4726,-0.4727,-0.4716,-0.4712,-0.4707,-0.4687,-0.4654,-0.4636,-0.4623,-0.4611,-0.4585,-0.455,-0.4574,-0.4563,-0.4576,-0.4551,-0.4488,-0.4579,-0.4579,-0.4564,-0.4423,-0.4407,-0.4395,-0.4502,-0.45,-0.4499,-0.4425,0,-0.4646,-0.4592,-0.4609,-0.4554,-0.4531,-0.4563,-0.4534,-0.4528,-0.4533,-0.4514,-0.4518,-0.4495,-0.4526,-0.452,-0.4497,-0.4501,-0.4461,-0.4506,-0.4479,-0.4478,-0.4483,-0.4382,-0.4364,-0.4295,-0.4415,-0.4413,-0.4412,0,-0.4546,-0.4534,-0.4477,-0.4479,-0.447,-0.4444,-0.443,-0.4411,-0.4405,-0.441,-0.44,-0.4419,-0.4386,-0.4425,-0.4381,-0.4412,-0.4402,-0.4402,-0.44,-0.44,-0.4443,-0.4382,-0.4272,-0.4263,-0.4397,-0.4398,-0.4399,0,-0.4469,-0.4437,-0.44,-0.4395,-0.4396,-0.4377,-0.4376,-0.4373,-0.4362,-0.4349,-0.4342,-0.4325,-0.4316,-0.4303,-0.4316,-0.4342,-0.4272,-0.431,-0.4276,-0.4276,-0.4261,-0.4263,-0.4152,-0.425,-0.425,-0.4251,-0.4251,0,-0.4379,-0.4344,-0.4366,-0.4343,-0.4305,-0.4325,-0.4286,-0.4288,-0.4285,-0.4263,-0.4288,-0.4267,-0.4286,-0.4266,-0.4276,-0.424,-0.4235,-0.4239,-0.4243,-0.4238,-0.4238,-0.4234,-0.424,-0.4248,-0.4248,-0.4249,-0.4249,0,-0.4287,-0.43,-0.4262,-0.4267,-0.4267,-0.4238,-0.4242,-0.4221,-0.4228,-0.42,-0.4195,-0.4206,-0.4184,-0.4196,-0.4173,-0.418,-0.4134,-0.4143,-0.4137,-0.4141,-0.4107,-0.4111,-0.3991,-0.3977,-0.4082,-0.4081,-0.408,0,-0.423,-0.4204,-0.4207,-0.4195,-0.4193,-0.4173,-0.4163,-0.4181,-0.417,-0.4162,-0.4142,-0.4123,-0.411,-0.4074,-0.4079,-0.4062,-0.4073,-0.4032,-0.407,-0.4068,-0.4075,-0.4078,-0.4076,-0.4024,-0.4023,-0.4022,-0.4021,0,-0.413,-0.4138,-0.4123,-0.4111,-0.4098,-0.4089,-0.4081,-0.407,-0.4089,-0.4074,-0.4054,-0.4043,-0.4021,-0.4003,-0.3989,-0.3987,-0.4008,-0.4009,-0.4001,-0.3998,-0.3997,-0.4,-0.4119,-0.4012,-0.4013,-0.4014,-0.4014,-0.4015,-0.4056,-0.4035,-0.4035,-0.4018,-0.4014,-0.4007,-0.3989,-0.3995,-0.3979,-0.3964,-0.3975,-0.3951,-0.3947,-0.3931,-0.3927,-0.3909,-0.3925,-0.3912,-0.391,-0.3907,-0.3904,-0.3997,-0.3905,-0.3906,-0.3906,-0.3906,-0.3906,0,-0.3959,-0.3961,-0.3945,-0.3935,-0.3922,-0.3943,-0.3936,-0.3924,-0.3903,-0.3899,-0.3885,-0.3863,-0.3845,-0.385,-0.3834,-0.3819,-0.3828,-0.3814,-0.3817,-0.3817,-0.3888,-0.3899,-0.3807,-0.3807,-0.3807,-0.3807,-0.3807,-0.3807,-0.3907,-0.3875,-0.3883,-0.385,-0.3851,-0.383,-0.3825,-0.3819,-0.3815,-0.379,-0.3776,-0.378,-0.3779,-0.3764,-0.3749,-0.3751,-0.3745,-0.3728,-0.3734,-0.3801,-0.3811,-0.3821,-0.383,-0.3726,-0.3726,-0.3664,-0.3663,-0.3663]}]]